When you browse on this site, cookies collect data to enhance your experience and personalize the content and advertising you see.
Visit our Privacy Policy to learn more. By continuing to use the site, you agree to this use of cookies and data.
  • Em Portugal
  • Lista de países
  • Para 7 dias
  • Temperatura da água
  • Mapas de satélite
  • Mapa do tempo
  • Widgets de tempo
  • user-avatar
    Iniciar Sessão

    Previsão horária em Dvor-Cheresovo

    Hoje, 20 Fevereiro, Quarta-feira

    Tempo Temperatura Precipitação Vento Pressão Humidade
    00:00 0°C° 0 mm 4 m/s 741 mmHg 90%
    01:00 0°C° 0 mm 4 m/s 741 mmHg 90%
    02:00 0°C° 0 mm 4 m/s 740 mmHg 92%
    03:00 0°C° 0 mm 4 m/s 740 mmHg 92%
    04:00 -1°C° 0 mm 4 m/s 740 mmHg 92%
    05:00 -1°C° 0 mm 4 m/s 740 mmHg 92%
    06:00 -1°C° 0 mm 4 m/s 740 mmHg 92%
    07:00 0°C° 0 mm 5 m/s 740 mmHg 92%
    08:00 0°C° 0 mm 5 m/s 739 mmHg 93%
    09:00 -1°C° 0.1 mm 6 m/s 739 mmHg 92%
    10:00 +1°C° 0.1 mm 6 m/s 739 mmHg 91%
    11:00 +1°C° 0.1 mm 6 m/s 739 mmHg 91%
    12:00 +1°C° 0 mm 6 m/s 739 mmHg 89%
    13:00 +1°C° 0 mm 6 m/s 739 mmHg 88%
    14:00 +1°C° 0 mm 6 m/s 739 mmHg 86%
    15:00 +1°C° 0.1 mm 6 m/s 739 mmHg 86%
    16:00 +1°C° 0.1 mm 6 m/s 739 mmHg 86%
    17:00 +1°C° 0.1 mm 6 m/s 739 mmHg 86%
    18:00 -2°C° 0.2 mm 7 m/s 739 mmHg 82%
    19:00 -3°C° 0.2 mm 7 m/s 739 mmHg 77%
    20:00 -5°C° 0.2 mm 8 m/s 740 mmHg 72%
    21:00 -5°C° 0 mm 8 m/s 740 mmHg 71%
    22:00 -6°C° 0 mm 8 m/s 741 mmHg 71%
    23:00 -7°C° 0 mm 8 m/s 742 mmHg 71%

    Amanhã, 21 Fevereiro, Quinta-feira

    Tempo Temperatura Precipitação Vento Pressão Humidade
    00:00 -7°C° 0 mm 8 m/s 742 mmHg 71%
    01:00 -8°C° 0 mm 8 m/s 743 mmHg 70%
    02:00 -8°C° 0 mm 8 m/s 743 mmHg 70%
    03:00 -8°C° 0 mm 8 m/s 743 mmHg 70%
    04:00 -8°C° 0 mm 8 m/s 744 mmHg 70%
    05:00 -10°C° 0 mm 8 m/s 744 mmHg 69%
    06:00 -9°C° 0 mm 7 m/s 745 mmHg 69%
    07:00 -9°C° 0 mm 7 m/s 745 mmHg 68%
    08:00 -9°C° 0 mm 7 m/s 746 mmHg 67%
    09:00 -9°C° 0 mm 7 m/s 746 mmHg 66%
    10:00 -8°C° 0 mm 7 m/s 747 mmHg 65%
    11:00 -8°C° 0 mm 7 m/s 747 mmHg 65%
    12:00 -8°C° 0 mm 7 m/s 748 mmHg 64%
    13:00 -7°C° 0 mm 7 m/s 748 mmHg 63%
    14:00 -6°C° 0 mm 6 m/s 749 mmHg 62%
    15:00 -6°C° 0 mm 6 m/s 749 mmHg 64%
    16:00 -7°C° 0 mm 5 m/s 749 mmHg 66%
    17:00 -7°C° 0 mm 5 m/s 750 mmHg 67%
    18:00 -8°C° 0 mm 5 m/s 750 mmHg 69%
    19:00 -8°C° 0 mm 4 m/s 750 mmHg 70%
    20:00 -9°C° 0 mm 4 m/s 751 mmHg 71%
    21:00 -9°C° 0 mm 4 m/s 751 mmHg 72%
    22:00 -9°C° 0 mm 4 m/s 752 mmHg 73%
    23:00 -9°C° 0 mm 4 m/s 752 mmHg 73%

    Depois de amanhã, 22 Fevereiro, Sexta-feira

    Tempo Temperatura Precipitação Vento Pressão Humidade
    00:00 -10°C° 0 mm 4 m/s 753 mmHg 73%
    01:00 -10°C° 0 mm 4 m/s 753 mmHg 73%
    02:00 -11°C° 0 mm 4 m/s 754 mmHg 73%
    03:00 -11°C° 0 mm 4 m/s 754 mmHg 73%
    04:00 -13°C° 0 mm 5 m/s 754 mmHg 73%
    05:00 -13°C° 0 mm 5 m/s 755 mmHg 73%
    06:00 -13°C° 0 mm 5 m/s 756 mmHg 73%
    07:00 -13°C° 0 mm 5 m/s 756 mmHg 73%
    08:00 -13°C° 0 mm 5 m/s 757 mmHg 73%
    09:00 -12°C° 0 mm 6 m/s 757 mmHg 70%
    10:00 -12°C° 0 mm 6 m/s 758 mmHg 66%
    11:00 -11°C° 0 mm 6 m/s 758 mmHg 63%
    12:00 -11°C° 0 mm 7 m/s 759 mmHg 60%
    13:00 -11°C° 0 mm 7 m/s 759 mmHg 57%
    14:00 -9°C° 0 mm 7 m/s 759 mmHg 53%
    15:00 -11°C° 0 mm 7 m/s 759 mmHg 56%
    16:00 -10°C° 0 mm 6 m/s 760 mmHg 59%
    17:00 -10°C° 0 mm 6 m/s 760 mmHg 61%
    18:00 -11°C° 0 mm 6 m/s 760 mmHg 63%
    19:00 -11°C° 0 mm 6 m/s 761 mmHg 65%
    20:00 -11°C° 0 mm 6 m/s 761 mmHg 66%
    21:00 -11°C° 0 mm 5 m/s 761 mmHg 68%
    22:00 -11°C° 0 mm 5 m/s 762 mmHg 69%
    23:00 -12°C° 0 mm 5 m/s 762 mmHg 70%

    23 Fevereiro, Sábado

    Tempo Temperatura Precipitação Vento Pressão Humidade
    00:00 -12°C° 0 mm 5 m/s 763 mmHg 71%
    01:00 -12°C° 0 mm 5 m/s 763 mmHg 73%
    02:00 -12°C° 0 mm 5 m/s 763 mmHg 74%
    03:00 -12°C° 0 mm 4 m/s 763 mmHg 76%
    04:00 -12°C° 0 mm 4 m/s 763 mmHg 77%
    05:00 -12°C° 0 mm 4 m/s 764 mmHg 78%
    06:00 -12°C° 0 mm 4 m/s 764 mmHg 79%
    07:00 -12°C° 0 mm 4 m/s 764 mmHg 80%
    08:00 -14°C° 0 mm 4 m/s 764 mmHg 81%
    09:00 -12°C° 0 mm 4 m/s 765 mmHg 77%
    10:00 -11°C° 0 mm 4 m/s 765 mmHg 73%
    11:00 -10°C° 0 mm 4 m/s 765 mmHg 68%
    12:00 -9°C° 0 mm 4 m/s 765 mmHg 65%
    13:00 -8°C° 0 mm 3 m/s 765 mmHg 61%
    14:00 -7°C° 0 mm 3 m/s 764 mmHg 57%
    15:00 -7°C° 0 mm 3 m/s 764 mmHg 59%
    16:00 -7°C° 0 mm 3 m/s 764 mmHg 61%
    17:00 -7°C° 0 mm 3 m/s 764 mmHg 62%
    18:00 -7°C° 0 mm 3 m/s 764 mmHg 64%
    19:00 -7°C° 0 mm 3 m/s 764 mmHg 65%
    20:00 -6°C° 0 mm 2 m/s 763 mmHg 66%
    21:00 -6°C° 0.1 mm 2 m/s 763 mmHg 72%
    22:00 -6°C° 0.1 mm 2 m/s 763 mmHg 77%
    23:00 -6°C° 0.1 mm 2 m/s 762 mmHg 83%

    24 Fevereiro, Domingo

    Tempo Temperatura Precipitação Vento Pressão Humidade
    00:00 -7°C° 0.1 mm 3 m/s 762 mmHg 84%
    01:00 -7°C° 0.1 mm 3 m/s 762 mmHg 85%
    02:00 -7°C° 0.1 mm 3 m/s 761 mmHg 86%
    03:00 -7°C° 0.1 mm 3 m/s 761 mmHg 87%
    04:00 -6°C° 0.1 mm 3 m/s 760 mmHg 89%
    05:00 -6°C° 0.1 mm 3 m/s 760 mmHg 91%
    06:00 -5°C° 0.1 mm 2 m/s 760 mmHg 92%
    07:00 -5°C° 0.1 mm 2 m/s 760 mmHg 93%
    08:00 -2°C° 0.1 mm 1 m/s 760 mmHg 95%
    09:00 -1°C° 0 mm 1 m/s 760 mmHg 93%
    10:00 -1°C° 0 mm 1 m/s 760 mmHg 92%
    11:00 0°C° 0 mm 1 m/s 760 mmHg 90%
    12:00 +1°C° 0 mm 1 m/s 760 mmHg 91%
    13:00 +1°C° 0 mm 1 m/s 760 mmHg 91%
    14:00 +1°C° 0 mm 1 m/s 760 mmHg 91%
    15:00 +1°C° 0 mm 1 m/s 760 mmHg 92%
    16:00 +1°C° 0 mm 1 m/s 760 mmHg 93%
    17:00 +1°C° 0 mm 1 m/s 760 mmHg 94%
    18:00 +1°C° 0 mm 1 m/s 760 mmHg 95%
    19:00 +1°C° 0 mm 1 m/s 761 mmHg 95%
    20:00 +1°C° 0 mm 1 m/s 761 mmHg 95%
    21:00 0°C° 0 mm 1 m/s 761 mmHg 95%
    22:00 0°C° 0 mm 1 m/s 760 mmHg 95%
    23:00 0°C° 0 mm 1 m/s 760 mmHg 95%

    25 Fevereiro, Segunda-feira

    Tempo Temperatura Precipitação Vento Pressão Humidade
    00:00 0°C° 0 mm 1 m/s 760 mmHg 95%
    01:00 0°C° 0 mm 1 m/s 760 mmHg 95%
    02:00 -2°C° 0 mm 2 m/s 759 mmHg 95%
    03:00 -2°C° 0 mm 2 m/s 759 mmHg 94%
    04:00 -2°C° 0 mm 2 m/s 759 mmHg 94%
    05:00 -2°C° 0 mm 2 m/s 758 mmHg 94%
    06:00 -2°C° 0 mm 2 m/s 758 mmHg 94%
    07:00 -1°C° 0 mm 2 m/s 758 mmHg 95%
    08:00 -1°C° 0 mm 2 m/s 757 mmHg 95%
    09:00 -1°C° 0 mm 3 m/s 757 mmHg 95%
    10:00 0°C° 0 mm 3 m/s 757 mmHg 94%
    11:00 0°C° 0 mm 3 m/s 757 mmHg 93%
    12:00 0°C° 0 mm 3 m/s 757 mmHg 90%
    13:00 0°C° 0 mm 4 m/s 756 mmHg 86%
    14:00 0°C° 0 mm 5 m/s 756 mmHg 82%
    15:00 0°C° 0 mm 5 m/s 756 mmHg 83%
    16:00 0°C° 0 mm 5 m/s 756 mmHg 84%
    17:00 -1°C° 0 mm 5 m/s 755 mmHg 85%
    18:00 -1°C° 0 mm 4 m/s 755 mmHg 85%
    19:00 -1°C° 0 mm 4 m/s 756 mmHg 85%
    20:00 -1°C° 0 mm 3 m/s 756 mmHg 86%
    21:00 -1°C° 0 mm 3 m/s 756 mmHg 87%
    22:00 -3°C° 0 mm 4 m/s 756 mmHg 87%
    23:00 -3°C° 0 mm 4 m/s 755 mmHg 88%
    Mostrar mais